, AK

(GMT )
Eureka

Weather History for PAZK - November, 2012

Change the Weather History Date:

Wednesday, November 21, 2012

  Actual Average Record
Temperature  
Mean Temperature -9 °F -  
Max Temperature -5 °F 11 °F 32 °F (2007)
Min Temperature -13 °F 2 °F -22 °F (2013)
Degree Days  
Heating Degree Days 74    
Moisture  
Dew Point -13 °F    
Average Humidity 86    
Maximum Humidity 100    
Minimum Humidity 64    
Precipitation  
Precipitation 0.00 in - - ()
Sea Level Pressure  
Sea Level Pressure 29.61 in    
Wind  
Wind Speed 6 mph (NE)    
Max Wind Speed 8 mph    
Max Gust Speed -    
Visibility 10 miles    
Events      
Averages and records for this station are not official NWS values.
T = Trace of Precipitation, MM = Missing Value Source: NWS Daily Summary

Daily Weather History Graph

Daily Weather History Graph

Search for Another Location

Airport or City:

Trip Planner

Search our weather history database for the weather conditions in past years. The results will help you decide how hot, cold, wet, or windy it might be!

Date:

Astronomy

Nov. 21, 2012 Rise Set
Actual Time 9:18 AM AKST 3:50 PM AKST
Civil Twilight 8:21 AM AKST 4:47 PM AKST
Nautical Twilight 7:24 AM AKST 5:44 PM AKST
Astronomical Twilight 6:31 AM AKST 6:37 PM AKST
Moon 1:53 PM AKST (11/21) 12:55 AM AKST (11/21)
Length of Visible Light 8h 25m
Length of Day
6h 32m
Waxing Gibbous, 63% of the Moon is Illuminated
Nov 21
Waxing Gibbous
Nov 28
Full
Dec 6
Last Quarter
Dec 12
New
Dec 19
First Quarter

Hourly Weather History & Observations

Time (AKST) Temp. Windchill Dew Point Humidity Pressure Visibility Wind Dir Wind Speed Gust Speed Precip Events Conditions
12:16 AM -11.2 °F -24.8 °F -11.2 °F 100% 29.56 in 10.0 mi ENE 5.8 mph - N/A   Clear
12:36 AM -11.2 °F -24.8 °F -20.2 °F 64% 29.56 in 10.0 mi ENE 5.8 mph - N/A   Clear
12:56 AM -9.4 °F -24.3 °F -9.4 °F 100% 29.56 in 10.0 mi NE 6.9 mph - N/A   Clear
1:16 AM -9.4 °F -24.3 °F -16.6 °F 71% 29.56 in 10.0 mi NE 6.9 mph - N/A   Clear
1:36 AM -7.6 °F -20.6 °F -7.6 °F 100% 29.56 in 10.0 mi NE 5.8 mph - N/A   Clear
1:56 AM -9.4 °F -22.7 °F -16.6 °F 71% 29.56 in 10.0 mi NE 5.8 mph - N/A   Clear
2:16 AM -9.4 °F -22.7 °F -9.4 °F 100% 29.56 in 10.0 mi NE 5.8 mph - N/A   Clear
2:36 AM -7.6 °F -18.8 °F -13.0 °F 77% 29.56 in 10.0 mi NE 4.6 mph - N/A   Clear
2:56 AM -9.4 °F -24.3 °F -14.8 °F 77% 29.56 in 10.0 mi NE 6.9 mph - N/A   Clear
3:16 AM -9.4 °F -22.7 °F -11.2 °F 92% 29.56 in 10.0 mi NE 5.8 mph - N/A   Clear
3:36 AM -9.4 °F -22.7 °F -11.2 °F 92% 29.55 in 10.0 mi NE 5.8 mph - N/A   Clear
3:56 AM -9.4 °F -22.7 °F -11.2 °F 92% 29.56 in 10.0 mi NE 5.8 mph - N/A   Clear
4:16 AM -11.2 °F -24.8 °F -14.8 °F 84% 29.56 in 10.0 mi ENE 5.8 mph - N/A   Clear
4:36 AM -11.2 °F -26.4 °F -13.0 °F 92% 29.55 in 10.0 mi NE 6.9 mph - N/A   Clear
4:56 AM -11.2 °F -24.8 °F -14.8 °F 84% 29.56 in 10.0 mi ENE 5.8 mph - N/A   Clear
5:16 AM -11.2 °F -24.8 °F -14.8 °F 84% 29.55 in 10.0 mi ENE 5.8 mph - N/A   Clear
5:36 AM -11.2 °F -26.4 °F -16.6 °F 77% 29.56 in 10.0 mi NE 6.9 mph - N/A   Clear
5:56 AM -11.2 °F -26.4 °F -14.8 °F 84% 29.56 in 10.0 mi ENE 6.9 mph - N/A   Clear
6:16 AM -11.2 °F -26.4 °F -16.6 °F 77% 29.55 in 10.0 mi NE 6.9 mph - N/A   Clear
6:36 AM - - - N/A% 29.54 in 10.0 mi NE 5.8 mph - N/A   Clear
6:56 AM -11.2 °F -24.8 °F -16.6 °F 77% 29.56 in 10.0 mi NE 5.8 mph - N/A   Clear
7:16 AM -11.2 °F -26.4 °F -16.6 °F 77% 29.55 in 10.0 mi NE 6.9 mph - N/A   Clear
7:36 AM -7.6 °F -23.4 °F -7.6 °F 100% 29.56 in 10.0 mi NNE 8.1 mph - N/A   Clear
7:56 AM -9.4 °F -25.6 °F -16.6 °F 71% 29.56 in 10.0 mi NE 8.1 mph - N/A   Clear
8:16 AM -9.4 °F -24.3 °F -9.4 °F 100% 29.56 in 10.0 mi NE 6.9 mph - N/A   Clear
8:36 AM -9.4 °F -22.7 °F -14.8 °F 77% 29.56 in 10.0 mi NE 5.8 mph - N/A   Clear
8:56 AM -11.2 °F -24.8 °F -13.0 °F 92% 29.57 in 10.0 mi NE 5.8 mph - N/A   Clear
9:16 AM -9.4 °F -22.7 °F -11.2 °F 92% 29.57 in 10.0 mi NE 5.8 mph - N/A   Clear
9:36 AM -9.4 °F -22.7 °F -14.8 °F 77% 29.58 in 10.0 mi NE 5.8 mph - N/A   Clear
9:56 AM -9.4 °F -22.7 °F -13.0 °F 84% 29.58 in 10.0 mi NE 5.8 mph - N/A   Clear
10:16 AM -9.4 °F -22.7 °F -13.0 °F 84% 29.58 in 10.0 mi NE 5.8 mph - N/A   Clear
10:36 AM -7.6 °F -18.8 °F -7.6 °F 100% 29.58 in 10.0 mi NE 4.6 mph - N/A   Clear
10:56 AM -7.6 °F -20.6 °F -11.2 °F 84% 29.59 in 10.0 mi NE 5.8 mph - N/A   Clear
11:16 AM -9.4 °F -20.9 °F -11.2 °F 92% 29.59 in 10.0 mi NE 4.6 mph - N/A   Clear
11:36 AM -9.4 °F -22.7 °F -14.8 °F 77% 29.60 in 10.0 mi NE 5.8 mph - N/A   Clear
11:56 AM -7.6 °F -18.8 °F -7.6 °F 100% 29.60 in 10.0 mi ENE 4.6 mph - N/A   Clear
12:16 PM -7.6 °F -18.8 °F -14.8 °F 71% 29.60 in 10.0 mi NE 4.6 mph - N/A   Clear
12:36 PM -7.6 °F -16.5 °F -9.4 °F 92% 29.61 in 10.0 mi NE 3.5 mph - N/A   Clear
12:56 PM -7.6 °F -16.5 °F -9.4 °F 92% 29.61 in 10.0 mi ENE 3.5 mph - N/A   Clear
1:16 PM -5.8 °F -16.7 °F -7.6 °F 92% 29.61 in 10.0 mi ENE 4.6 mph - N/A   Clear
1:36 PM -5.8 °F -16.7 °F -9.4 °F 84% 29.61 in 10.0 mi NE 4.6 mph - N/A   Clear
1:56 PM -7.6 °F -18.8 °F -11.2 °F 84% 29.61 in 10.0 mi ENE 4.6 mph - N/A   Clear
2:16 PM -5.8 °F -14.5 °F -7.6 °F 92% 29.61 in 10.0 mi ENE 3.5 mph - N/A   Clear
2:36 PM -7.6 °F - -13.0 °F 77% 29.61 in 10.0 mi Calm Calm - N/A   Clear
2:56 PM -5.8 °F -21.2 °F -5.8 °F 100% 29.61 in 10.0 mi NE 8.1 mph - N/A   Clear
3:16 PM -5.8 °F -18.4 °F -14.8 °F 65% 29.62 in 10.0 mi NE 5.8 mph - N/A   Clear
3:36 PM -5.8 °F -16.7 °F -5.8 °F 100% 29.63 in 10.0 mi NE 4.6 mph - N/A   Clear
3:56 PM -5.8 °F -18.4 °F -11.2 °F 77% 29.63 in 10.0 mi NE 5.8 mph - N/A   Clear
4:16 PM -5.8 °F -14.5 °F -7.6 °F 92% 29.63 in 10.0 mi NE 3.5 mph - N/A   Clear
4:36 PM -5.8 °F -16.7 °F -11.2 °F 77% 29.63 in 10.0 mi NE 4.6 mph - N/A   Clear
4:56 PM -7.6 °F -16.5 °F -9.4 °F 92% 29.63 in 10.0 mi NE 3.5 mph - N/A   Clear
5:16 PM -7.6 °F -16.5 °F -11.2 °F 84% 29.64 in 10.0 mi ENE 3.5 mph - N/A   Clear
5:36 PM -9.4 °F -20.9 °F -14.8 °F 77% 29.64 in 10.0 mi ENE 4.6 mph - N/A   Clear
5:56 PM -7.6 °F -18.8 °F -9.4 °F 92% 29.65 in 10.0 mi NE 4.6 mph - N/A   Clear
6:16 PM -9.4 °F -20.9 °F -16.6 °F 71% 29.66 in 10.0 mi ENE 4.6 mph - N/A   Clear
6:36 PM -7.6 °F -20.6 °F -7.6 °F 100% 29.66 in 10.0 mi ENE 5.8 mph - N/A   Clear
6:56 PM -9.4 °F -20.9 °F -16.6 °F 71% 29.66 in 10.0 mi ENE 4.6 mph - N/A   Clear
7:16 PM -9.4 °F -22.7 °F -9.4 °F 100% 29.67 in 10.0 mi ENE 5.8 mph - N/A   Clear
7:36 PM -11.2 °F -27.8 °F -18.4 °F 70% 29.67 in 10.0 mi NE 8.1 mph - N/A   Clear
7:56 PM -11.2 °F -26.4 °F -11.2 °F 100% 29.68 in 10.0 mi NE 6.9 mph - N/A   Clear
8:16 PM -9.4 °F -25.6 °F -14.8 °F 77% 29.68 in 10.0 mi NE 8.1 mph - N/A   Clear
8:36 PM -11.2 °F -26.4 °F -14.8 °F 84% 29.68 in 10.0 mi NE 6.9 mph - N/A   Clear
8:56 PM -13.0 °F -28.6 °F -20.2 °F 70% 29.69 in 10.0 mi ENE 6.9 mph - N/A   Clear
9:16 PM -11.2 °F -24.8 °F -11.2 °F 100% 29.69 in 10.0 mi NE 5.8 mph - N/A   Clear
9:36 PM -11.2 °F -27.8 °F -14.8 °F 84% 29.69 in 10.0 mi NE 8.1 mph - N/A   Clear
9:56 PM -11.2 °F -26.4 °F -13.0 °F 92% 29.70 in 10.0 mi ENE 6.9 mph - N/A   Clear
10:16 PM -11.2 °F -26.4 °F -16.6 °F 77% 29.70 in 10.0 mi ENE 6.9 mph - N/A   Clear
10:36 PM -11.2 °F -24.8 °F -11.2 °F 100% 29.71 in 10.0 mi ENE 5.8 mph - N/A   Clear
10:56 PM -11.2 °F -24.8 °F -14.8 °F 84% 29.71 in 10.0 mi ENE 5.8 mph - N/A   Clear
11:16 PM -9.4 °F -20.9 °F -13.0 °F 84% 29.71 in 10.0 mi ENE 4.6 mph - N/A   Clear
11:36 PM -11.2 °F -23.0 °F -16.6 °F 77% 29.72 in 10.0 mi ENE 4.6 mph - N/A   Clear
11:56 PM -11.2 °F -26.4 °F -13.0 °F 92% 29.72 in 10.0 mi ENE 6.9 mph - N/A   Clear